Weather in Cole Bay

Sint Maarten     18°02′06″N   63°04′56″W
temp.,
°C
wind,
m/s
gust,
m/s
humid.,
%
clouds,
%
prec.,
mm/h
press.,
hPa
HPBL,
m
7 may, fri
fri723:00+26ene99700 0.4 10171155
02:00+26e88660 0.4 10161150
05:00+26e78682 0.0 10161213
08:00+26e887214 0.1 10171069
11:00+26e887197 0.0 10181086
14:00+26e787283 0.3 1016998
17:00+26e887416 0.1 1015977
20:00+26e89735 0.3 10171036
8 may, sat
sat823:00+26ese89731 0.1 10181106
02:00+26ese997511 1.1 1016995
05:00+26ese78700 0.1 10171048
08:00+26e78730 0.6 10181026
11:00+26e78751 0.0 1018961
14:00+27ese88735 0.4 10171013
17:00+26e78763 0.0 1016958
20:00+26e89740 0.0 1018964
9 may, sun
sun923:00+26e99765 0.1 1019972
02:00+26e897975 0.2 1017871
05:00+26e89797 0.1 1017870
08:00+26e9979100 0.3 1019917
11:00+26e897994 0.5 1019874
14:00+27e7978100 1.6 1018917
17:00+27e7880100 0.1 1018837
20:00+27e8979100 0.4 1019759
10 may, mon
mon1023:00+26e91083100 1.4 1019788
02:00+26e91083100 2.8 1017785
05:00+27e9107898 0.6 1017941
08:00+26ene101180100 0.7 1019916
11:00+27e91179100 0.3 1019937
14:00+27e91181100 0.4 1017962
17:00+26ene101180100 0.2 1017917
20:00+27e91181100 0.2 1018918
11 may, tue
tue1123:00+27e91179100 0.0 1019903
02:00+26e91179100 0.0 1017914
05:00+26e91181100 0.8 1017839
08:00+27e9117793 2.1 1018927
11:00+27e9107763 0.0 1018942
14:00+27e898020 0.2 1017849
17:00+26ene91081100 1.3 1016816
20:00+27ene9107987 1.6 1018912